Location: Asheville, NC
(35.6000°N, 82.5500°W)
Time: 14:14:41
(UTC-04:00)

Vanguard 2 Rocket - Pass Details

Date: 09 December 2017
Orbit: 554 x 3327 km, 32.9° (Epoch: 17 July)

Event Time Altitude Azimuth Distance (km) Brightness Sun altitude
Rises 21:31:48 0° 250° (WSW) 5,722 11.5 -50.9°
Reaches altitude 10° 21:35:01 10° 249° (WSW) 5,016 11.0 -51.6°
Enters shadow 21:46:47 61° 230° (SW) 3,272 9.4 -53.9°
Maximum altitude 21:51:09 77° 167° (SSE) 3,209 - -54.8°
Drops below altitude 10° 22:11:41 10° 86° (E) 6,159 - -58.9°
Sets 22:16:09 0° 85° (E) 7,021 - -59.8°
